Location: Newark
(34.5992°S, 58.3747°W)
Time: 03:27:46
(UTC+00:00)

Envisat - Visible Passes

Search period start: 13 December 2019 00:00
Search period end: 23 December 2019 00:00
Orbit: 764 x 766 km, 98.1° (Epoch: 12 December)

Date Brightness Start Highest point End Pass type
(mag) Time Alt. Az. Time Alt. Az. Time Alt. Az.
13 Dec 5.9 23:44:54 10° SSW 23:48:43 21° WSW 23:52:31 10° WNW visible
16 Dec 6.4 00:12:03 10° SW 00:13:53 12° WSW 00:15:44 10° W visible
16 Dec 5.5 23:33:17 10° SSW 23:37:33 27° WSW 23:41:47 10° NW visible
18 Dec 6.1 23:59:51 10° SSW 00:02:45 15° WSW 00:05:39 10° W visible
21 Dec 5.9 23:48:00 10° SSW 23:51:37 20° WSW 23:55:11 10° WNW visible
